Regional Weather Roundup
Issued by NWS Newport/Morehead, NC

Current Version | Previous Version | Graphics & Text | Print | Product List | Glossary Off
Versions: 1 2 3 4 5 6 7 8 9 10 11 12 13 14 15 16 17 18 19 20 21 22 23 24 25 26 27 28 29 30 31 32 33 34 35 36 37 38 39 40 41 42 43 44 45 46 47 48 49 50

000
ASUS42 KMHX 270610
RWRMHX
WEATHER ROUNDUP FOR EASTERN NORTH CAROLINA
NATIONAL WEATHER SERVICE NEWPORT/MOREHEAD CITY NC
100 AM EST SAT DEC 27 2014

NOTE: "FAIR" INDICATES FEW OR NO CLOUDS BELOW 12,000 FEET
WITH NO SIGNIFICANT WEATHER AND/OR OBSTRUCTIONS TO VISIBILITY

NCZ015>017-031-032-045>047-102-103-270700-
NORTH COAST

CITY           SKY/WX    TMP DP  RH WIND       PRES   REMARKS
EDENTON          N/A     36  34  95 CALM      30.30F FOG
ELIZABETH CITY CLEAR     42  36  79 CALM      30.29F
KITTY HAWK     PTCLDY    46  45  97 CALM      30.28F
MANTEO         FOG       37  37 100 CALM      30.30S VSB 1/2

$$

NCZ045>047-081-094-103-104-270700-
CENTRAL COAST

CITY           SKY/WX    TMP DP  RH WIND       PRES   REMARKS
FRISCO         CLEAR     37  37 100 NW5       30.30F
SWANQUARTER      N/A     39 N/A N/A S2        30.27S

$$

NCZ095-097-098-100-101-270700-
SOUTHERN COAST

CITY           SKY/WX    TMP DP  RH WIND       PRES   REMARKS
BEAUFORT       CLEAR     38  38 100 CALM      30.31F
CEDAR ISLAND     N/A     41 N/A N/A SE3       30.33F
JACKSONVILLE   CLEAR     37  36  96 CALM      30.31S
PINEY ISLAND   CLEAR     47  38  71 S3        30.30F
WILMINGTON     CLEAR     38  36  92 CALM      30.32R


$$

NCZ011>013-027>030-043-044-078>080-089-090>093-098-270700-
COASTAL PLAIN

CITY           SKY/WX    TMP DP  RH WIND       PRES   REMARKS
AHOSKIE        PTCLDY    35  33  95 CALM      30.30S
CLINTON        CLEAR     36  36 100 CALM      30.32F
ELIZABETHTOWN  CLEAR     36  34  94 CALM      30.32S
GOLDSBORO      NOT AVBL
GREENVILLE     PTCLDY    37  37 100 CALM      30.32R
HAVELOCK       CLEAR     37  34  89 CALM      30.32F
KENANSVILLE    CLEAR     32  32 100 CALM      30.33S
KINSTON        PTCLDY    33  32  98 CALM      30.31F FOG
NEW BERN         N/A     36  34  92 CALM      30.32S VSB 1/4
RICHLANDS      CLEAR     34  30  86 CALM      30.32S
ROCKY MOUNT    MOCLDY    37  35  92 CALM      30.31R
WASHINGTON     PTCLDY    37  36  94 CALM      30.31S
WHITEVILLE     CLEAR     38  37  96 CALM      30.32S

$$

AMZ130-135-150-152-154-156-158-170-250-252-270-ANZ085-086-088-633-658-670-270700-
MARINE OBSERVATIONS

STATION/POSITION TIME  TEMP    WIND        PRES    WAVE   SWELL
                       AIR SEA DIR/SP/G            HT/PER HT/PER
                 (UTC) (F)     (DEG/KT/KT) (MB)    (FT/S) (FT/S)
CHESAPEAKE LIGHT 0500   48     170/ 10/ 10 1026.3
64 E VA BEACH    0600   51 52  200/  6/  8 1024.9    2/ 8   2/ 8
DUCK             0600   48 51  220/  7/  8 1025.2
2 E DUCK         0600      50                N/A     2/13   2/13
10 NE DUCK       0600      50                N/A     2/13   2/13
OREGON INLET     0600   46 54  150/  3/  4 1025.9
13E OREGON INLT  0600      49                N/A     3/ 8   2/12
HATTERAS CG      0600   49 55  330/  1/  1 1026.2
DIAMOND BUOY     0600   55                 1025.8    3/ 9
17 S OCRACOKE    NOT AVBL
CAPE LOOKOUT     0500   53      30/  1/  2 1026.3
BEAUFORT LAB     0600   46 55  360/  1/  2 1025.2
30 SE NEW RIVER  0600   58 61  100/  2/  4 1026.3    2/ 9   2/ 9
5 SE WRIGHTSVLE  NOT AVBL
225 S CAPE HAT   0526   67 74   70/  8/ 10 1025.4    3/ 8   3/ 8
41 SE CHARLESTON 0600   63 74   40/ 10/ 12 1024.7    2/ 7   2/ 7

$$



USA.gov is the U.S. government's official web portal to all federal, state and local government web resources and services.